FW5778 Weather Reports


Display with metric or nautical units.
time (UTC)temp
F
wind
direction
speed
MPH
gust
MPH
rain 1hr
in
rain 24hr
in
rain mn
in
humidity
%
barometer
mb
20260904201018 83 224 9.0 21.0 0.00 0.00 0.00 16 1009.4
20260904200518 83 136 10.0 22.0 0.00 0.00 0.00 17 1009.4
20260904200018 83 146 9.0 18.0 0.00 0.00 0.00 17 1009.5
20260904195516 82 186 11.0 20.0 0.00 0.00 0.00 18 1009.6
20260904195014 82 91 9.0 26.0 0.00 0.00 0.00 20 1009.7
20260904194515 82 161 13.0 26.0 0.00 0.00 0.00 19 1009.7
20260904194014 82 155 11.0 22.0 0.00 0.00 0.00 19 1009.8
20260904193515 82 200 10.0 18.0 0.00 0.00 0.00 20 1009.8
20260904193032 82 128 8.0 23.0 0.00 0.00 0.00 18 1009.9
20260904192514 82 162 7.0 28.0 0.00 0.00 0.00 18 1009.9
20260904192012 82 127 9.0 28.0 0.00 0.00 0.00 18 1009.8
20260904191512 82 207 9.0 19.0 0.00 0.00 0.00 18 1009.9
20260904191011 81 141 9.0 25.0 0.00 0.00 0.00 18 1009.9
20260904190511 81 163 11.0 25.0 0.00 0.00 0.00 18 1010.1
20260904190020 81 136 10.0 24.0 0.00 0.00 0.00 18 1010.1
20260904185509 81 117 8.0 24.0 0.00 0.00 0.00 22 1010.2
20260904185009 81 159 9.0 18.0 0.00 0.00 0.00 21 1010.2
20260904184508 81 123 9.0 24.0 0.00 0.00 0.00 19 1010.3
20260904184007 80 162 13.0 24.0 0.00 0.00 0.00 22 1010.4
20260904183507 80 191 10.0 19.0 0.00 0.00 0.00 23 1010.5
20260904183006 80 147 10.0 19.0 0.00 0.00 0.00 24 1010.6
20260904182504 79 141 10.0 20.0 0.00 0.00 0.00 24 1010.5
20260904182003 79 157 11.0 27.0 0.00 0.00 0.00 23 1010.6
20260904181503 79 192 12.0 27.0 0.00 0.00 0.00 23 1010.6
20260904181002 79 151 10.0 22.0 0.00 0.00 0.00 24 1010.6
20260904180504 79 148 10.0 18.0 0.00 0.00 0.00 24 1010.7
20260904180001 79 147 7.0 21.0 0.00 0.00 0.00 25 1010.7
20260904175600 79 134 11.0 21.0 0.00 0.00 0.00 24 1010.8
20260904175100 78 72 9.0 19.0 0.00 0.00 0.00 25 1010.6
20260904174559 78 138 9.0 20.0 0.00 0.00 0.00 25 1010.9
20260904174101 78 129 10.0 20.0 0.00 0.00 0.00 25 1010.9
20260904173557 78 123 9.0 23.0 0.00 0.00 0.00 25 1010.9
20260904173059 78 124 12.0 23.0 0.00 0.00 0.00 25 1011.0
20260904172557 78 167 10.0 18.0 0.00 0.00 0.00 25 1011.0
20260904172055 78 118 9.0 21.0 0.00 0.00 0.00 26 1011.0
20260904171556 78 156 7.0 23.0 0.00 0.00 0.00 26 1010.9
20260904171055 77 99 12.0 23.0 0.00 0.00 0.00 26 1010.8
20260904170554 77 165 9.0 19.0 0.00 0.00 0.00 26 1010.9
20260904170056 77 137 11.0 19.0 0.00 0.00 0.00 26 1010.9
20260904165552 77 148 9.0 21.0 0.00 0.00 0.00 26 1010.9
20260904165052 76 146 11.0 21.0 0.00 0.00 0.00 26 1010.9
20260904164551 76 143 9.0 20.0 0.00 0.00 0.00 25 1011.0
20260904164049 76 121 10.0 16.0 0.00 0.00 0.00 26 1011.0
20260904163548 76 150 8.0 17.0 0.00 0.00 0.00 25 1011.0
20260904163049 76 168 8.0 18.0 0.00 0.00 0.00 26 1011.2
20260904162546 75 120 10.0 20.0 0.00 0.00 0.00 25 1011.2
20260904162146 75 141 9.0 20.0 0.00 0.00 0.00 27 1011.2
20260904161545 75 136 9.0 19.0 0.00 0.00 0.00 26 1011.1
20260904161044 75 118 8.0 17.0 0.00 0.00 0.00 26 1011.2
20260904160544 74 129 6.0 16.0 0.00 0.00 0.00 26 1011.2
20260904160048 74 154 7.0 15.0 0.00 0.00 0.00 27 1011.2
20260904155544 73 188 7.0 17.0 0.00 0.00 0.00 27 1011.2
20260904155045 73 151 10.0 16.0 0.00 0.00 0.00 27 1011.2
20260904154544 73 136 6.0 14.0 0.00 0.00 0.00 27 1011.2
20260904154043 73 69 9.0 14.0 0.00 0.00 0.00 28 1011.1
20260904153543 73 146 8.0 14.0 0.00 0.00 0.00 28 1011.1
20260904153051 73 214 7.0 14.0 0.00 0.00 0.00 29 1011.1
20260904152542 72 139 7.0 16.0 0.00 0.00 0.00 30 1011.2
20260904152041 72 149 7.0 17.0 0.00 0.00 0.00 30 1011.1
20260904151541 72 143 7.0 17.0 0.00 0.00 0.00 31 1011.1
20260904151041 72 145 6.0 15.0 0.00 0.00 0.00 31 1011.2
20260904150546 72 165 4.0 15.0 0.00 0.00 0.00 30 1011.2
20260904150052 71 150 7.0 15.0 0.00 0.00 0.00 31 1011.1
20260904145541 71 250 7.0 15.0 0.00 0.00 0.00 30 1011.2
20260904145043 71 223 3.0 13.0 0.00 0.00 0.00 30 1011.2
20260904144539 71 184 6.0 14.0 0.00 0.00 0.00 27 1011.1
20260904144039 71 157 7.0 14.0 0.00 0.00 0.00 25 1011.0
20260904143538 71 159 5.0 14.0 0.00 0.00 0.00 24 1011.1
20260904143039 71 160 6.0 12.0 0.00 0.00 0.00 25 1011.1
20260904142538 71 151 6.0 13.0 0.00 0.00 0.00 23 1011.1
20260904142038 70 160 6.0 11.0 0.00 0.00 0.00 24 1011.0
20260904141537 70 148 4.0 11.0 0.00 0.00 0.00 25 1011.0
20260904141037 70 176 3.0 11.0 0.00 0.00 0.00 26 1011.0
20260904140540 70 162 4.0 11.0 0.00 0.00 0.00 26 1011.0
20260904140036 69 186 2.0 10.0 0.00 0.00 0.00 26 1011.0
20260904135536 69 148 3.0 8.0 0.00 0.00 0.00 25 1010.9
20260904135036 69 150 2.0 6.0 0.00 0.00 0.00 25 1010.9
20260904134541 68 149 2.0 7.0 0.00 0.00 0.00 25 1010.9
20260904134034 68 132 3.0 7.0 0.00 0.00 0.00 25 1010.8
20260904133534 67 195 2.0 6.0 0.00 0.00 0.00 25 1010.8
20260904133033 67 160 2.0 7.0 0.00 0.00 0.00 25 1010.8
20260904132533 66 217 2.0 8.0 0.00 0.00 0.00 25 1010.8
20260904132031 66 210 3.0 8.0 0.00 0.00 0.00 24 1010.7
20260904131531 67 161 2.0 6.0 0.00 0.00 0.00 24 1010.6
20260904131030 67 167 1.0 8.0 0.00 0.00 0.00 23 1010.5
20260904130533 67 212 3.0 9.0 0.00 0.00 0.00 22 1010.5
20260904130041 67 144 2.0 9.0 0.00 0.00 0.00 22 1010.4
20260904125529 67 139 5.0 12.0 0.00 0.00 0.00 21 1010.4
20260904125029 67 179 4.0 11.0 0.00 0.00 0.00 21 1010.4
20260904124529 67 144 4.0 10.0 0.00 0.00 0.00 21 1010.4
20260904124031 67 159 4.0 10.0 0.00 0.00 0.00 21 1010.3
20260904123530 67 144 2.0 10.0 0.00 0.00 0.00 21 1010.2
20260904123026 67 155 4.0 10.0 0.00 0.00 0.00 21 1010.1
20260904122525 67 188 3.0 10.0 0.00 0.00 0.00 21 1010.0
20260904122025 67 169 4.0 12.0 0.00 0.00 0.00 21 1010.1
20260904121524 67 142 5.0 12.0 0.00 0.00 0.00 21 1010.0
20260904121025 67 153 2.0 6.0 0.00 0.00 0.00 21 1009.9
20260904120523 67 210 2.0 6.0 0.00 0.00 0.00 21 1009.9
20260904120033 67 185 2.0 7.0 0.00 0.00 0.00 21 1009.9
20260904115522 67 172 2.0 8.0 0.00 0.00 0.00 21 1009.9
20260904115023 67 164 3.0 11.0 0.00 0.00 0.00 20 1009.8
20260904114525 67 139 2.0 11.0 0.00 0.00 0.00 21 1009.9
20260904114024 67 153 0.0 6.0 0.00 0.00 0.00 20 1009.8
20260904113520 67 146 1.0 3.0 0.00 0.00 0.00 20 1009.9
20260904113020 67 219 1.0 8.0 0.00 0.00 0.00 19 1009.8
20260904112519 68 200 0.0 8.0 0.00 0.00 0.00 19 1009.8
20260904112017 68 188 1.0 6.0 0.00 0.00 0.00 18 1009.8
20260904111517 68 146 3.0 0.0 0.00 0.00 0.00 18 1009.9
20260904111017 68 152 2.0 7.0 0.00 0.00 0.00 18 1009.9
20260904110516 68 186 2.0 7.0 0.00 0.00 0.00 18 1009.9
20260904110016 69 153 2.0 9.0 0.00 0.00 0.00 17 1009.9
20260904105513 69 132 2.0 9.0 0.00 0.00 0.00 17 1009.8
20260904105013 69 154 3.0 9.0 0.00 0.00 0.00 17 1009.7
20260904104522 69 120 5.0 9.0 0.00 0.00 0.00 17 1009.8
20260904104013 69 148 4.0 9.0 0.00 0.00 0.00 17 1009.7
20260904103512 69 158 3.0 9.0 0.00 0.00 0.00 17 1009.7
20260904103012 69 176 4.0 10.0 0.00 0.00 0.00 17 1009.6
20260904102512 69 178 3.0 9.0 0.00 0.00 0.00 18 1009.7
20260904102011 69 131 4.0 8.0 0.00 0.00 0.00 20 1009.6
20260904101509 69 129 3.0 7.0 0.00 0.00 0.00 21 1009.6
20260904101009 69 149 3.0 6.0 0.00 0.00 0.00 22 1009.4
20260904100508 69 136 1.0 10.0 0.00 0.00 0.00 22 1009.4
20260904100007 69 120 1.0 10.0 0.00 0.00 0.00 21 1009.3
20260904095510 70 175 3.0 11.0 0.00 0.00 0.00 20 1009.3
20260904095005 70 144 5.0 11.0 0.00 0.00 0.00 20 1009.1
20260904094504 70 142 4.0 12.0 0.00 0.00 0.00 19 1009.0
20260904094003 70 257 6.0 12.0 0.00 0.00 0.00 19 1009.0
20260904093503 70 150 4.0 13.0 0.00 0.00 0.00 20 1009.0
20260904093003 70 129 4.0 13.0 0.00 0.00 0.00 20 1009.0
20260904092503 70 156 4.0 12.0 0.00 0.00 0.00 20 1008.9
20260904092002 70 130 6.0 12.0 0.00 0.00 0.00 19 1009.0
20260904091502 70 195 3.0 14.0 0.00 0.00 0.00 19 1008.8
20260904091102 70 147 4.0 14.0 0.00 0.00 0.00 20 1008.8
20260904090559 70 194 4.0 13.0 0.00 0.00 0.00 20 1008.8
20260904090059 71 151 5.0 13.0 0.00 0.00 0.00 19 1008.8
20260904085559 70 150 7.0 13.0 0.00 0.00 0.00 19 1008.7
20260904085058 71 208 3.0 13.0 0.00 0.00 0.00 19 1008.8
20260904084559 70 154 6.0 13.0 0.00 0.00 0.00 20 1008.6
20260904084058 71 221 4.0 13.0 0.00 0.00 0.00 20 1008.6
20260904083558 70 132 5.0 13.0 0.00 0.00 0.00 20 1008.5
20260904083055 70 161 7.0 13.0 0.00 0.00 0.00 20 1008.6
20260904082555 70 182 4.0 10.0 0.00 0.00 0.00 21 1008.6
20260904082054 71 228 4.0 13.0 0.00 0.00 0.00 20 1008.4
20260904081558 71 173 5.0 15.0 0.00 0.00 0.00 20 1008.4
20260904081051 71 184 5.0 15.0 0.00 0.00 0.00 20 1008.4
20260904080552 71 160 7.0 15.0 0.00 0.00 0.00 20 1008.2
20260904080049 72 156 7.0 15.0 0.00 0.00 0.00 19 1008.4
20260904075548 72 162 5.0 20.0 0.00 0.00 0.00 18 1008.5
20260904075047 72 150 5.0 17.0 0.00 0.00 0.00 19 1008.5
20260904074547 72 244 5.0 16.0 0.00 0.00 0.00 18 1008.6
20260904074045 72 150 7.0 16.0 0.00 0.00 0.00 17 1008.5
20260904073548 72 153 5.0 14.0 0.00 0.00 0.00 17 1008.5
20260904073043 72 157 6.0 13.0 0.00 0.00 0.00 17 1008.4
20260904072543 72 146 5.0 13.0 0.00 0.00 0.00 16 1008.5
20260904072043 73 173 4.0 17.0 0.00 0.00 0.00 16 1008.4
20260904071542 73 149 4.0 17.0 0.00 0.00 0.00 16 1008.4
20260904071041 73 163 7.0 14.0 0.00 0.00 0.00 16 1008.4
20260904070541 73 158 6.0 18.0 0.00 0.00 0.00 16 1008.4
20260904070040 74 136 11.0 18.0 0.00 0.00 0.00 15 1008.3
20260904065539 74 146 6.0 16.0 0.00 0.00 0.00 15 1008.4
20260904065038 74 162 8.0 15.0 0.00 0.00 0.00 16 1008.4
20260904064537 73 143 6.0 18.0 0.00 0.00 0.00 16 1008.4
20260904064036 73 156 10.0 18.0 0.00 0.00 0.00 16 1008.3
20260904063535 72 127 4.0 11.0 0.00 0.00 0.00 20 1008.3
20260904063038 73 165 5.0 15.0 0.00 0.00 0.00 19 1008.2
20260904062532 74 145 4.0 15.0 0.00 0.00 0.00 17 1008.2
20260904062032 73 160 6.0 14.0 0.00 0.00 0.00 18 1008.1
20260904061540 74 109 4.0 14.0 0.00 0.00 0.00 18 1008.1
20260904061029 74 179 8.0 18.0 0.00 0.00 0.00 18 1008.0
20260904060528 75 129 5.0 22.0 0.00 0.00 0.00 16 1008.0
20260904060026 75 109 9.0 21.0 0.00 0.00 0.00 15 1007.9
20260904055525 75 143 8.0 21.0 0.00 0.00 0.00 16 1007.9
20260904055025 75 158 7.0 17.0 0.00 0.00 0.00 16 1007.9
20260904054527 75 165 5.0 17.0 0.00 0.00 0.00 16 1007.8
20260904054027 75 127 5.0 16.0 0.00 0.00 0.00 16 1007.8
20260904053528 75 158 9.0 16.0 0.00 0.00 0.00 16 1007.8
20260904053025 75 140 6.0 15.0 0.00 0.00 0.00 16 1007.8
20260904052525 75 173 7.0 13.0 0.00 0.00 0.00 16 1007.8
20260904052025 75 186 6.0 13.0 0.00 0.00 0.00 17 1007.7
20260904051524 75 158 4.0 13.0 0.00 0.00 0.00 16 1007.7
20260904051026 76 141 5.0 13.0 0.00 0.00 0.00 16 1007.8
20260904050524 76 147 6.0 14.0 0.00 0.00 0.00 16 1007.8
20260904050024 76 144 5.0 14.0 0.00 0.00 0.00 16 1007.8
20260904045524 76 166 5.0 14.0 0.00 0.00 0.00 16 1007.8
20260904045024 76 122 8.0 21.0 0.00 0.00 0.00 15 1007.9
20260904044536 77 151 8.0 21.0 0.00 0.00 0.00 15 1007.9
20260904044023 77 167 5.0 16.0 0.00 0.00 0.00 15 1007.9
20260904043523 77 166 6.0 18.0 0.00 0.00 0.00 15 1007.8
20260904043032 77 142 7.0 18.0 0.00 0.00 0.00 15 1007.9
20260904042523 77 144 8.0 19.0 0.00 0.00 0.00 15 1007.8
20260904042024 77 129 8.0 17.0 0.00 0.00 0.00 15 1007.8
20260904041523 76 227 6.0 16.0 0.00 0.00 0.00 16 1007.8
20260904041022 76 180 6.0 16.0 0.00 0.00 0.00 16 1007.7
20260904040522 76 131 6.0 14.0 0.00 0.00 0.00 16 1007.8
20260904040022 76 161 6.0 14.0 0.00 0.00 0.00 16 1007.8
20260904035522 76 150 5.0 14.0 0.00 0.00 0.00 16 1007.7
20260904035024 76 150 6.0 14.0 0.00 0.00 0.00 16 1007.6
20260904034521 76 181 5.0 11.0 0.00 0.00 0.00 16 1007.6
20260904034021 76 156 3.0 10.0 0.00 0.00 0.00 16 1007.5
20260904033522 76 167 4.0 11.0 0.00 0.00 0.00 16 1007.6
20260904033020 76 151 4.0 11.0 0.00 0.00 0.00 16 1007.6
20260904032520 76 194 3.0 10.0 0.00 0.00 0.00 16 1007.6
20260904032021 76 199 3.0 8.0 0.00 0.00 0.00 16 1007.6
20260904031520 77 158 3.0 10.0 0.00 0.00 0.00 16 1007.6
20260904031019 77 139 3.0 11.0 0.00 0.00 0.00 15 1007.6
20260904030520 77 201 3.0 11.0 0.00 0.00 0.00 16 1007.5
20260904030022 77 255 4.0 13.0 0.00 0.00 0.00 15 1007.5
20260904025519 77 150 4.0 13.0 0.00 0.00 0.00 15 1007.5
20260904025020 77 221 3.0 9.0 0.00 0.00 0.00 15 1007.5
20260904024519 77 198 2.0 7.0 0.00 0.00 0.00 15 1007.5
20260904024018 77 146 2.0 7.0 0.00 0.00 0.00 15 1007.5
20260904023519 78 138 3.0 10.0 0.00 0.00 0.00 15 1007.5
20260904023018 78 226 3.0 10.0 0.00 0.00 0.00 15 1007.5
20260904022518 78 167 3.0 12.0 0.00 0.00 0.00 15 1007.4
20260904022018 78 201 5.0 12.0 0.00 0.00 0.00 15 1007.3
20260904021523 78 198 3.0 9.0 0.00 0.00 0.00 15 1007.3
20260904021021 78 197 2.0 7.0 0.00 0.00 0.00 15 1007.3
20260904020517 79 198 2.0 11.0 0.00 0.00 0.00 15 1007.3
20260904020017 79 154 5.0 13.0 0.00 0.00 0.00 15 1007.2
20260904015518 79 184 4.0 13.0 0.00 0.00 0.00 15 1007.2
20260904015016 80 155 2.0 12.0 0.00 0.00 0.00 15 1007.3
20260904014516 80 139 3.0 16.0 0.00 0.00 0.00 14 1007.5
20260904014015 81 152 7.0 16.0 0.00 0.00 0.00 14 1007.5
20260904013514 81 155 6.0 14.0 0.00 0.00 0.00 14 1007.4
20260904013016 82 180 4.0 13.0 0.00 0.00 0.00 14 1007.5
20260904012516 82 157 6.0 15.0 0.00 0.00 0.00 14 1007.5
20260904012014 82 244 4.0 20.0 0.00 0.00 0.00 14 1007.5
20260904011514 82 148 8.0 20.0 0.00 0.00 0.00 13 1007.6
20260904011013 82 226 11.0 21.0 0.00 0.00 0.00 13 1007.6
20260904010513 82 219 8.0 21.0 0.00 0.00 0.00 13 1007.6
20260904010013 82 209 9.0 20.0 0.00 0.00 0.00 13 1007.6
20260904005512 82 131 8.0 19.0 0.00 0.00 0.00 13 1007.6
20260904005012 82 207 9.0 17.0 0.00 0.00 0.00 13 1007.6
20260904004512 81 272 7.0 22.0 0.00 0.00 0.00 14 1007.6
20260904004012 81 212 13.0 22.0 0.00 0.00 0.00 13 1007.7
20260904003513 81 201 7.0 15.0 0.00 0.00 0.00 14 1007.7
20260904003010 81 243 5.0 16.0 0.00 0.00 0.00 14 1007.7
20260904002513 81 203 7.0 15.0 0.00 0.00 0.00 15 1007.7
20260904002011 81 189 4.0 14.0 0.00 0.00 0.00 15 1007.7
20260904001509 81 181 6.0 18.0 0.00 0.00 0.00 15 1007.8
20260904001010 81 193 8.0 18.0 0.00 0.00 0.00 14 1007.8
20260904000510 81 162 5.0 16.0 0.00 0.00 0.00 15 1007.7
20260904000009 81 134 4.0 18.0 0.00 0.00 0.00 15 1007.7
20260903235509 81 224 7.0 18.0 0.00 0.00 0.00 14 1007.8
20260903235008 81 158 7.0 18.0 0.00 0.00 0.00 14 1008.0
20260903234520 82 165 5.0 18.0 0.00 0.00 0.00 15 1008.0
20260903234008 81 143 6.0 23.0 0.00 0.00 0.00 14 1007.9
20260903233507 82 154 6.0 23.0 0.00 0.00 0.00 14 1008.0
20260903233006 82 162 5.0 18.0 0.00 0.00 0.00 14 1008.0
20260903232506 82 155 6.0 13.0 0.00 0.00 0.00 14 1008.2
20260903232005 82 162 5.0 18.0 0.00 0.00 0.00 14 1008.2
20260903231504 82 176 7.0 18.0 0.00 0.00 0.00 13 1008.4
20260903231003 83 162 9.0 18.0 0.00 0.00 0.00 13 1008.4
20260903230502 83 148 8.0 18.0 0.00 0.00 0.00 13 1008.3
20260903230005 83 214 7.0 19.0 0.00 0.00 0.00 13 1008.4
20260903225502 83 222 9.0 24.0 0.00 0.00 0.00 12 1008.6
20260903225100 83 167 9.0 24.0 0.00 0.00 0.00 12 1008.7
20260903224600 84 217 6.0 23.0 0.00 0.00 0.00 13 1008.7
20260903224059 83 212 10.0 23.0 0.00 0.00 0.00 12 1008.7
20260903223558 83 212 8.0 22.0 0.00 0.00 0.00 12 1008.8
20260903223058 83 158 6.0 20.0 0.00 0.00 0.00 13 1008.8
20260903222602 83 153 9.0 23.0 0.00 0.00 0.00 11 1008.8
20260903222057 84 155 11.0 22.0 0.00 0.00 0.00 11 1008.9
20260903221558 84 231 4.0 25.0 0.00 0.00 0.00 13 1009.0
20260903221054 83 155 10.0 25.0 0.00 0.00 0.00 13 1009.1
20260903220554 83 118 9.0 19.0 0.00 0.00 0.00 13 1009.1
20260903220117 83 146 7.0 23.0 0.00 0.00 0.00 13 1009.1
20260903215554 82 148 11.0 23.0 0.00 0.00 0.00 14 1009.1
20260903215053 83 195 9.0 22.0 0.00 0.00 0.00 13 1009.3
20260903214552 82 130 8.0 19.0 0.00 0.00 0.00 12 1009.3
20260903214052 83 160 11.0 19.0 0.00 0.00 0.00 12 1009.5
20260903213554 83 129 6.0 18.0 0.00 0.00 0.00 13 1009.6
20260903213051 83 169 6.0 18.0 0.00 0.00 0.00 13 1009.5
20260903212550 83 147 7.0 20.0 0.00 0.00 0.00 14 1009.6
20260903212050 83 124 6.0 17.0 0.00 0.00 0.00 13 1009.5
20260903211551 83 141 9.0 14.0 0.00 0.00 0.00 12 1009.7
20260903211049 82 196 6.0 15.0 0.00 0.00 0.00 13 1009.8
20260903210547 82 222 8.0 20.0 0.00 0.00 0.00 12 1009.9
20260903210047 83 200 9.0 20.0 0.00 0.00 0.00 12 1010.1
20260903205545 82 158 7.0 15.0 0.00 0.00 0.00 13 1010.1
20260903205048 82 193 8.0 24.0 0.00 0.00 0.00 12 1010.0
20260903204545 82 122 10.0 24.0 0.00 0.00 0.00 13 1010.2
20260903204045 82 108 13.0 23.0 0.00 0.00 0.00 12 1010.3
20260903203545 82 229 7.0 18.0 0.00 0.00 0.00 13 1010.2
20260903203044 82 143 10.0 22.0 0.00 0.00 0.00 12 1010.3
20260903202546 82 180 11.0 22.0 0.00 0.00 0.00 13 1010.4
20260903202045 82 217 7.0 20.0 0.00 0.00 0.00 13 1010.5
20260903201543 82 164 9.0 20.0 0.00 0.00 0.00 13 1010.5